Flag Weather past 2 weeks in Furnace Creek (Death Valley), California, U.S.A.

Now
44 °F

Clear.


Feels Like: 38 °F
Forecast: 51 / 73 °F
Wind: 12 mph from Northeast

Location: Desert Rock Airport

Current Time: Nov 23, 2014 at 6:53:39 AM

Latest Report: Nov 23, 2014 at 5:52 AM


Visibility: 10 mi

Pressure: 30.18 "Hg

Humidity: 37%

Dew point: 19 °F

Location of Furnace Creek (Death Valley)Location

Historic Weather in Furnace Creek (Death Valley) — Graph

°F

Furnace Creek (Death Valley) temperature yesterday

Maximum temperature yesterday: 66 °F (at 1:52 PM)
Minimum temperature yesterday: 37 °F (at 3:52 AM)
Average temperature yesterday: 52 °F

Past Weeks' High & Low Weather Summary

 TemperatureHumidityPressure
High80 °F (Nov 8, 2:52 PM)76% (Nov 15, 5:52 AM)30.36 "Hg (Nov 15, 5:52 AM)
Low34 °F (Nov 20, 4:52 AM)7% (Nov 16, 2:52 PM)29.67 "Hg (Nov 10, 1:52 PM)
Average54 °F30%29.97 "Hg
* Reported Nov 8 4:52 AM — Nov 23 4:52 AM, Furnace Creek (Death Valley), Weather by CustomWeather, © 2014

Note: Actual official high and low records may vary slightly from our data, if they occured in-between our weather recording intervals... More about our weather records

Advertising

Furnace Creek (Death Valley) weather history for previous 24 hours

 ConditionsComfort  
Time TempWeatherWind HumidityBarometerVisibility
4:52 AM
Nov 23
43 °FClear.9 mph40%30.15 "Hg10 mi
3:52 AM45 °FClear.13 mph38%30.11 "Hg10 mi
2:52 AM47 °FClear.14 mph41%30.08 "Hg10 mi
1:52 AM51 °FClear.20 mph35%30.04 "Hg10 mi
12:52 AM52 °FClear.20 mph28%30.00 "Hg10 mi
11:52 PM
Nov 22
54 °FClear.17 mph25%29.98 "Hg10 mi
10:52 PM54 °FClear.16 mph35%29.95 "Hg10 mi
9:52 PM50 °FClear.5 mph46%29.94 "Hg10 mi
8:52 PM52 °FClear.7 mph43%29.91 "Hg10 mi
7:52 PM53 °FClear.9 mph41%29.88 "Hg10 mi
6:52 PM54 °FClear.12 mph40%29.88 "Hg10 mi
5:52 PM58 °FClear.16 mph35%29.85 "Hg10 mi
4:52 PM59 °FClear.15 mph32%29.83 "Hg10 mi
3:52 PM62 °FSunny.18 mph26%29.83 "Hg10 mi
2:52 PM66 °FSunny.22 mph20%29.82 "Hg10 mi
1:52 PM66 °FSunny.18 mph18%29.82 "Hg10 mi
12:52 PM63 °FSunny.17 mph24%29.86 "Hg10 mi
11:52 AM62 °FSunny.14 mph25%29.90 "Hg10 mi
10:52 AM59 °FSunny.10 mph31%29.96 "Hg10 mi
9:52 AM56 °FSunny.6 mph33%30.00 "Hg10 mi
8:52 AM54 °FSunny.3 mph35%30.00 "Hg10 mi
7:52 AM47 °FSunny.5 mph46%30.03 "Hg10 mi
6:52 AM38 °FSunny.3 mph58%30.02 "Hg10 mi
Weather by CustomWeather, © 2014

See weather overviewHow to use our weather pages